Location: Unspecified
(0.0000°N, 0.0000°E)
Time: 13:58:45
(UTC+02:00)

Cosmos 1933 - Visible Passes

Search period start: 23 July 2014 00:00
Search period end: 02 August 2014 00:00
Orbit: 557 x 572 km, 82.5° (Epoch: 22 July)

Date Brightness Start Highest point End Pass type
(mag) Time Alt. Az. Time Alt. Az. Time Alt. Az.
23 Jul 4.7 21:10:25 10° NNW 21:14:16 40° W 21:18:07 10° SSW visible
24 Jul 5.3 21:10:59 10° NNW 21:14:35 30° W 21:18:11 10° SSW visible
25 Jul 5.9 21:11:39 10° NW 21:14:54 23° W 21:18:09 10° SSW visible
26 Jul 6.6 07:36:51 10° ESE 07:38:37 13° E 07:40:23 10° ENE visible
26 Jul 6.3 21:12:28 10° NW 21:15:13 18° W 21:17:58 10° SW visible
27 Jul 6.4 07:36:18 10° SE 07:38:56 17° E 07:41:33 10° NE visible
27 Jul 6.5 21:13:32 10° WNW 21:15:32 13° W 21:17:31 10° WSW visible
28 Jul 6.2 07:36:05 10° SE 07:39:15 22° E 07:42:25 10° NE visible
29 Jul 5.7 07:36:01 10° SSE 07:39:34 28° E 07:43:06 10° NNE visible
30 Jul 5.1 07:36:04 10° SSE 07:39:53 38° E 07:43:41 10° NNE visible
31 Jul 4.4 07:36:12 10° S 07:40:11 51° E 07:44:10 10° NNE visible
01 Aug 3.8 07:36:25 10° S 07:40:30 70° E 07:44:35 10° N visible
